Starlink 30802

operational
NORAD ID: 58150 Int'l Des: 2023-166 Owner: SPXS Country: US Constellation: starlink
LEOCIRCULAR

About Starlink 30802

Description loading...

Live Position

Loading 3D Globe...

Upcoming Passes

Altitude History

Altitude vs Time

uPlot chart will show altitude changes over time

Two-Line Element Set

1 58150U 23166A 26034.19556673 -.00000203 00000-0 52792-5 0 9990
2 58150 53.1627 20.1356 0001330 93.4501 266.6652 15.30189564127893
Epoch: Feb 3, 2026 • Age: 9 hours

Current Status

Altitude 477.0 km
Velocity 7.63 km/s
Sub-Earth Point -5.39°S, 131.39°W
Launch Date Oct 29, 2023
Age 2.2 years
Type internet

Technical Details

Classification Payload
Mass 730.00 kg
Dry Mass 700.00 kg
Total Mass 730.00 kg
Length 0.30 m
Diameter 4.10 m
Span 29.00 m
Shape Box + pan
Manufacturer SPXS
Bus Type Starlink V2M
Phase Status In Orbit
Owner/State SPXS/US

Large Constellations

Loading constellations...